Find Starlink 36169

NORAD ID: 66929 Int'l Des: 2025-286 Owner: SPXS Country: US Constellation: starlink operational
LEOCIRCULAR

現在のビュー

3D地球を読み込み中...

Starlink 36169について

説明を読み込み中...

次回通過

Passes for default location (London). Set your location on the main map for personalized predictions.

高度履歴

Loading altitude history...

軌道要素

1 66929U 25286E 26146.59816173 .00023106 00000-0 69280-3 0 9994
2 66929 53.1609 355.9563 0001000 75.8914 284.2200 15.34404025 27352
Epoch: May 26, 2026 • Age: 8 hours

現在のステータス

高度 464.0 km
速度 7.64 km/s
衛星直下点 -3.80°S, 134.84°E
打ち上げ日 Dec 7, 2025
運用期間 0.4 years
タイプ internet

技術仕様

分類 Payload
質量 575.00 kg
乾燥質量 530.00 kg
総質量 575.00 kg
長さ 0.30 m
直径 4.10 m
スパン 29.00 m
形状 Box + pan
製造者 SPXS
バスタイプ Starlink V2MO
フェーズステータス In Orbit
所有者/国 SPXS/US

Most Searched